Home   Weather   Vevay   Past weeks

Flag for USA Past Weather in Vevay, Indiana, USA — Yesterday and Last 2 Weeks

Now
49 °F

Light rain. Fog.


Feels Like: 47 °F
Forecast: 47 / 60 °F
Wind: 5 mph from Southeast

Location: Cincinnati / Northern Kentucky International Airport

Current Time: Jan 16, 2017 at 8:02:20 pm

Latest Report: Jan 16, 2017 at 6:52 pm


Visibility: 4 mi

Pressure: 30.14 "Hg

Humidity: 100%

Dew Point: 49 °F

Location of VevayLocation

Past Weather in Vevay — Graph

°F

Vevay Temperature Yesterday

Maximum temperature yesterday: 38 °F (at 11:52 pm)
Minimum temperature yesterday: 33 °F (at 6:04 am)
Average temperature yesterday: 35 °F

High & Low Weather Summary for the Past Weeks

 TemperatureHumidityPressure
High66 °F (Jan 12, 10:52 am)100% (Jan 1, 11:52 pm)30.77 "Hg (Jan 1, 11:52 pm)
Low4 °F (Jan 7, 7:52 am)46% (Jan 10, 12:52 am)29.62 "Hg (Jan 3, 2:52 pm)
Average35 °F83%30.18 "Hg
* Reported Jan 1 6:52 pm — Jan 16 6:52 pm, Vevay, Weather by CustomWeather, © 2017

Note: Actual official high and low records may vary slightly from our data, if they occured in-between our weather recording intervals... More about our weather records

Advertising

Vevay Weather History for the Previous 24 Hours

Scroll right to see more
 ConditionsComfort  
Time TempWeatherWind HumidityBarometerVisibility
6:52 pm
Mon, Jan 16
49 °FLight rain. Fog.5 mph100%30.14 "Hg4 mi
5:52 pm49 °FFog.No wind97%30.15 "Hg3 mi
4:52 pm49 °FFog.6 mph97%30.15 "Hg2 mi
4:42 pm49 °FFog.7 mph97%30.15 "Hg2 mi
3:52 pm50 °FFog.6 mph93%30.16 "Hg2 mi
2:52 pm50 °FFog.7 mph89%30.16 "Hg2 mi
1:52 pm48 °FFog.6 mph93%30.18 "Hg2 mi
12:52 pm47 °FFog.5 mph93%30.22 "Hg2 mi
11:52 am44 °FFog.3 mph96%30.26 "Hg2 mi
11:35 am44 °FFog.6 mph93%30.26 "Hg2 mi
10:54 am43 °FFog.6 mph93%30.27 "Hg2 mi
9:55 am40 °FFog.9 mph100%30.28 "Hg1 mi
8:52 am39 °FFog.8 mph96%30.29 "Hg1 mi
7:52 am39 °FFog.5 mph96%30.28 "Hg1 mi
6:52 am38 °FFog.8 mph100%30.29 "Hg1 mi
5:52 am38 °FFog.6 mph100%30.28 "Hg1 mi
4:52 am38 °FFog.7 mph100%30.27 "Hg1 mi
3:52 am38 °FFog.6 mph97%30.29 "Hg1 mi
2:52 am38 °FFog.8 mph97%30.29 "Hg1 mi
1:52 am38 °FFog.7 mph97%30.29 "Hg1 mi
12:52 am38 °FFog.7 mph97%30.29 "Hg1 mi
12:42 am37 °FFog.8 mph100%30.28 "Hg1 mi
11:52 pm
Sun, Jan 15
38 °FLight rain. Fog.8 mph97%30.31 "Hg1 mi
10:52 pm37 °FFog.8 mph96%30.32 "Hg1 mi
9:52 pm37 °FFog.7 mph96%30.33 "Hg2 mi
8:52 pm37 °FLight rain. Fog.5 mph96%30.34 "Hg2 mi
Weather by CustomWeather, © 2017

See weather overviewHow to use our weather pages